Regional Weather Roundup
Issued by NWS

Home | Current Version | Previous Version | Text Only | Print | Product List | Glossary Off
Versions: 1 2 3 4 5 6 7 8 9 10 11 12 13 14 15 16 17 18 19 20 21 22 23 24 25 26 27 28 29 30 31 32 33 34 35 36 37 38 39 40 41 42 43 44 45 46 47 48 49 50

000
ASUS44 KMEG 281600
RWRTN
TENNESSEE HOURLY STATE WEATHER ROUNDUP
NATIONAL WEATHER SERVICE MEMPHIS TN
1100 AM CDT TUE JUL 28 2015

TNZ002-004-019-021-049-052-054-088>092-281700-
WEST TENNESSEE

CITY           SKY/WX    TMP DP  RH WIND       PRES   REMARKS
MEMPHIS INTL   MOSUNNY   93  74  53 SW8       30.01S HX 103
NWS MEMPHIS      N/A     92 N/A N/A MISG        N/A
JACKSON        SUNNY     92  76  59 W8        30.01S HX 104
DYERSBURG        N/A    N/A N/A N/A MISG        N/A
PARIS          SUNNY     88  77  70 SW5       30.02S HX 100
$$

TNZ008-025-027-028-033-062-065-066-281700-
NORTH MIDDLE TENNESSEE

CITY           SKY/WX    TMP DP  RH WIND       PRES   REMARKS
NASHVILLE      PTSUNNY   90  75  61 W6        30.02R HX 100
CLARKSVILLE    MOSUNNY   89  74  60 W5        30.00S HX  98
COOKEVILLE     MOSUNNY   91  79  66 SW6       30.04R HX 107
CROSSVILLE     MOSUNNY   85  72  65 NW7       30.10R HX  91
$$

TNZ061-075-076-078-094-096-097-281700-
SOUTH MIDDLE TENNESSEE

CITY           SKY/WX    TMP DP  RH WIND       PRES   REMARKS
FAYETTEVILLE     N/A     88  73  62 SW5       30.05R HX  96
TULLAHOMA      MOSUNNY   88  73  62 VRB5      30.06S HX  96
WINCHESTER     PTSUNNY   90  75  62 VRB5      30.05R HX 100
MCMINNVILLE    MOSUNNY   90  79  70 W7        30.06R HX 105
SHELBYVILLE    MOSUNNY   91  79  66 W6        30.04S HX 107
$$

TNZ017-018-042-046-047-281700-
NORTHEAST TENNESSEE

CITY           SKY/WX    TMP DP  RH WIND       PRES   REMARKS
TRI CITIES     MOSUNNY   83  72  69 VRB3      30.07R
$$

TNZ012-013-036-069-073-074-281700-
CENTRAL EAST TENNESSEE

CITY           SKY/WX    TMP DP  RH WIND       PRES   REMARKS
KNOXVILLE      MOSUNNY   86  75  69 W8        30.03S HX  95
OAK RIDGE      MOSUNNY   88  74  63 VRB3      30.04F HX  96
GATLINBURG       N/A     90  72  55 W3        30.03S HX  96
$$

TNZ083-085-099-281700-
SOUTHEAST TENNESSEE

CITY           SKY/WX    TMP DP  RH WIND       PRES   REMARKS
CHATTANOOGA    MOSUNNY   90  74  59 CALM      30.02F HX  99
$$

SKY/WX REPORTED AS FAIR MEANS FEW OR NO CLOUDS BELOW
12 THOUSAND FEET.



USA.gov is the U.S. government's official web portal to all federal, state and local government web resources and services.